Shoreham, United Kingdom

4:31 PM GMT on February 25, 2017 (GMT +0000)
Shoreham

Weather History for EGKA - October, 2011

Change the Weather History Date:

Saturday, October 8, 2011

  Actual Average Record
Temperature  
Mean Temperature 54 °F -  
Max Temperature 58 °F 55 °F 69 °F (2003)
Min Temperature 49 °F 47 °F 41 °F (2015)
Degree Days  
Heating Degree Days 12    
Growing Degree Days 4 (Base 50)    
Moisture  
Dew Point 48 °F    
Average Humidity 75    
Maximum Humidity 94    
Minimum Humidity 60    
Precipitation  
Precipitation 0.01 in - - ()
Sea Level Pressure  
Sea Level Pressure 30.19 in    
Wind  
Wind Speed 10 mph ()    
Max Wind Speed 14 mph    
Max Gust Speed -    
Visibility 6.2 miles    
Events      
Averages and records for this station are not official NWS values.
T = Trace of Precipitation, MM = Missing Value Source: Averaged Metar Reports

Daily Weather History Graph

Daily Weather History Graph

Search for Another Location

Airport or City:

Trip Planner

Search our weather history database for the weather conditions in past years. The results will help you decide how hot, cold, wet, or windy it might be!

Date:

Astronomy

Oct. 08, 2011 Rise Set
Actual Time 7:11 AM BST 6:24 PM BST
Civil Twilight 6:39 AM BST 6:57 PM BST
Nautical Twilight 6:00 AM BST 7:35 PM BST
Astronomical Twilight 5:22 AM BST 8:13 PM BST
Moon 4:43 PM BST (10/8) 3:25 AM BST (10/8)
Length of Visible Light 12h 18m
Length of Day
11h 12m
Waxing Gibbous, 88% of the Moon is Illuminated
Oct 8
Waxing Gibbous
Oct 12
Full
Oct 20
Last Quarter
Oct 26
New
Nov 2
First Quarter

Hourly Weather History & Observations

Time (BST) Temp. Dew Point Humidity Pressure Visibility Wind Dir Wind Speed Gust Speed Precip Events Conditions
12:50 AM 50 °F 45 °F 77% 30.22 in - NW 12.7 mph - -  
3:50 AM 49 °F 45 °F 79% 30.22 in - WNW 10.4 mph - -  
6:50 AM 51 °F 45 °F 74% 30.22 in - WNW 11.5 mph - -  
8:50 AM 51.8 °F 46.4 °F 82% 30.21 in - WNW 12.7 mph - N/A   Clear
9:20 AM 51.8 °F 46.4 °F 82% 30.21 in - WNW 12.7 mph - N/A   Clear
9:50 AM 53 °F 46 °F 70% 30.23 in - WNW 12.7 mph - -  
9:50 AM 53.6 °F 46.4 °F 77% 30.21 in - WNW 12.7 mph - N/A   Clear
10:20 AM 53.6 °F 46.4 °F 77% 30.21 in - WNW 13.8 mph - N/A   Clear
10:50 AM 53.6 °F 46.4 °F 77% 30.21 in 6.2 mi WNW 12.7 mph - N/A   Partly Cloudy
11:20 AM 55.4 °F 46.4 °F 72% 30.21 in 6.2 mi WNW 13.8 mph - N/A   Partly Cloudy
11:50 AM 55.4 °F 46.4 °F 72% 30.21 in 6.2 mi NW 13.8 mph - N/A   Partly Cloudy
12:20 PM 55.4 °F 46.4 °F 72% 30.21 in 6.2 mi NW 13.8 mph - N/A   Partly Cloudy
12:50 PM 57 °F 47 °F 60% 30.22 in - NW 13.8 mph - -  
12:50 PM 57.2 °F 46.4 °F 67% 30.21 in 6.2 mi NW 13.8 mph - N/A   Scattered Clouds
1:20 PM 57.2 °F 46.4 °F 67% 30.21 in 6.2 mi WNW 13.8 mph - N/A   Scattered Clouds
1:50 PM 57.2 °F 48.2 °F 72% 30.21 in 6.2 mi WNW 11.5 mph - N/A   Scattered Clouds
2:20 PM 57.2 °F 48.2 °F 72% 30.18 in 6.2 mi WNW 11.5 mph - N/A   Partly Cloudy
2:50 PM 57.2 °F 48.2 °F 72% 30.18 in 6.2 mi NW 12.7 mph - N/A   Partly Cloudy
3:20 PM 57.2 °F 48.2 °F 72% 30.18 in 6.2 mi WNW 9.2 mph - N/A   Partly Cloudy
3:50 PM 58 °F 48 °F 60% 30.18 in - WNW 8.1 mph - -  
3:50 PM 57.2 °F 48.2 °F 72% 30.18 in 6.2 mi WNW 9.2 mph - N/A   Partly Cloudy
4:20 PM 59.0 °F 48.2 °F 67% 30.18 in 6.2 mi WNW 9.2 mph - N/A   Partly Cloudy
4:50 PM 59.0 °F 48.2 °F 67% 30.15 in - WNW 8.1 mph - N/A   Clear
5:20 PM 57.2 °F 48.2 °F 72% 30.15 in - WNW 5.8 mph - N/A   Clear
5:50 PM 59.0 °F 50.0 °F 72% 30.15 in - West 5.8 mph - N/A   Clear
6:20 PM 59.0 °F 50.0 °F 72% 30.15 in 6.2 mi West 9.2 mph - N/A   Scattered Clouds
6:50 PM 57 °F 53 °F 81% 30.16 in - West 11.5 mph - -  
6:50 PM 57.2 °F 51.8 °F 82% 30.15 in 6.2 mi West 10.4 mph - N/A   Partly Cloudy
7:20 PM 57.2 °F 53.6 °F 88% 30.15 in 6.2 mi West 9.2 mph - N/A   Partly Cloudy
7:50 PM 55.4 °F 53.6 °F 94% 30.15 in 6.2 mi West 9.2 mph - N/A   Partly Cloudy
9:50 PM 56 °F 54 °F 93% 30.16 in - West 9.2 mph - -